Regional Weather Roundup
Issued by NWS

Home | Current Version | Previous Version | Text Only | Print | Product List | Glossary Off
Versions: 1 2 3 4 5 6 7 8 9 10 11 12 13 14 15 16 17 18 19 20 21 22 23 24 25 26 27 28 29 30 31 32 33 34 35 36 37 38 39 40 41 42 43 44 45 46 47 48 49 50

000
ASUS43 KMPX 270901
RWRMN
WEATHER ROUNDUP FOR MINNESOTA
NATIONAL WEATHER SERVICE TWIN CITIES/CHANHASSEN MN
400 AM CDT MON APR 27 2015


NOTE: "FAIR" INDICATES FEW OR NO CLOUDS BELOW 12,000 FEET WITH NO
SIGNIFICANT WEATHER AND/OR OBSTRUCTIONS TO VISIBILITY. N/A MEANS
CURRENT SKY AND/OR WEATHER CONDITIONS ARE NOT AVAILABLE.

MNZ060>063-068>070-271000-
   Twin Cities Metro

CITY           SKY/WX    TMP DP  RH WIND       PRES   REMARKS
TWIN CITIES    CLEAR     42  30  62 N5        30.20R
ST PAUL        FAIR      39  27  62 NW5       30.21R
CRYSTAL        CLEAR     36  27  69 CALM      30.20R
BLAINE         CLEAR     36  28  75 CALM      30.20R
LAKEVILLE      CLEAR     36  27  69 NW3       30.19R
EDEN PRAIRIE   CLEAR     41  29  62 N6        30.19R
SOUTH ST PAUL  CLEAR     40  27  58 CALM      30.20R
LAKE ELMO      FAIR      34  30  86 NW3       30.20R
$$
MNZ001>005-007-008-013>017-022>024-027-028-271000-
   Northwest Minnesota

CITY           SKY/WX    TMP DP  RH WIND       PRES   REMARKS
BEMIDJI        CLEAR     31  22  69 CALM      30.19R
HALLOCK        MOCLDY    37  21  52 S5        30.17R
ROSEAU         PTCLDY    36  28  75 CALM      30.19R
WARROAD        CLEAR     32  27  80 CALM      30.20R
THIEF RVR FALL CLEAR     45  21  39 SE3       30.19R
CROOKSTON      PTCLDY    36  23  60 CALM      30.20R
FOSSTON        CLEAR     30  21  69 CALM      30.20R
DETROIT LAKES  CLEAR     39  30  70 CALM      30.21R
MOORHEAD       PTCLDY    37  21  52 SW3       30.21R
PARK RAPIDS    CLEAR     32  25  75 CALM      30.19R
MAHNOMEN       FAIR      39  23  52 S5        30.19R
$$
MNZ006-009>011-018-025>026-271000-
   North Central Minnesota

CITY           SKY/WX    TMP DP  RH WIND       PRES   REMARKS
BAUDETTE       CLEAR     32  25  75 CALM      30.19R
FLAG ISLAND    CLEAR     41  32  70 CALM      30.19R
INTL FALLS     CLEAR     29  23  78 CALM      30.19R
WASKISH        CLEAR     28  25  86 CALM      30.20R
BIG FORK       CLEAR     27  21  80 CALM      30.20R
LONGVILLE      CLEAR     27  27 100 CALM      30.20R
GRAND RAPIDS   CLEAR     28  18  64 CALM      30.19R
CRANE LAKE     CLEAR     25  21  86 CALM      30.22S
ORR            CLEAR     28  21  74 CALM      30.17S
COOK           CLEAR     27  23  86 CALM      30.20R
WALKER         FAIR      29  23  77 W5        30.19R WCI  24
$$
MNZ012-019>021-037-271000-
   Northeast Minnesota

CITY           SKY/WX    TMP DP  RH WIND       PRES   REMARKS
DULUTH         CLEAR     30  22  72 CALM      30.18R
ELY            CLEAR     27  25  93 CALM      30.19S
HIBBING        CLEAR     25  19  78 CALM      30.19R
EVELETH        CLEAR     27  23  86 CALM      30.20R
DULUTH HARBOR  CLEAR     34  30  86 CALM      30.22R
TWO HARBORS    CLEAR     36  27  69 NW5       30.17S
SILVER BAY     CLEAR     27  23  86 CALM      30.17S
GRAND MARAIS     N/A     43  27  53 N8        30.18R
G MARAIS ARPRT CLEAR     30  21  69 NW5       30.18R WCI  25
$$
MNZ029>031-032-039>041-046>048-054>057-064-271000-
   West Central Minnesota

CITY           SKY/WX    TMP DP  RH WIND       PRES   REMARKS
FERGUS FALLS   CLEAR     45  21  39 CALM      30.22S
WHEATON        CLEAR     36  21  55 CALM      30.22S
MORRIS         CLEAR     36  21  55 CALM      30.19S
ALEXANDRIA     CLEAR     36  30  79 CALM      30.21R
ELBOW LAKE     FAIR      43  32  64 SE5       30.20S
WADENA         CLEAR     30  25  80 CALM      30.21R
GLENWOOD       CLEAR     43  21  42 CALM      30.21S
APPLETON       CLEAR     34  27  75 CALM      30.19S
BENSON         CLEAR     32  27  80 CALM      30.20S
ORTONVILLE     CLEAR     37  25  60 CALM      30.19S
MADISON        CLEAR     34  23  64 CALM      30.19S
WILLMAR        FAIR      36  28  75 CALM      30.21S
$$
MNZ033>034-036-042>043-049>051-058-059-271000-
   Central Minnesota

CITY           SKY/WX    TMP DP  RH WIND       PRES   REMARKS
ST CLOUD       CLEAR     35  22  58 CALM      30.21R
SAUK CENTRE    FAIR      32  25  73 CALM      30.21S
PAYNESVILLE    CLEAR     28  26  91 CALM      30.21S
AITKIN         CLEAR     27  21  80 CALM      30.19R
PINE RIVER     CLEAR     28  25  86 CALM      30.23R
BRAINERD       CLEAR     28  21  75 CALM      30.21R
STAPLES        CLEAR     28  25  86 CALM      30.21R
LONG PRAIRIE   FAIR      32  30  93 CALM      30.21R
LITTLE FALLS   CLEAR     30  27  86 CALM      30.22R
LITCHFIELD     CLEAR     37  36  93 CALM      30.21S
BUFFALO        CLEAR     34  26  73 CALM      30.22R
MAPLE LAKE     CLEAR     33  28  80 CALM      30.22R
$$
MNZ037-044-045-052-053-271000-
   East Central Minnesota

CITY           SKY/WX    TMP DP  RH WIND       PRES   REMARKS
PRINCETON      CLEAR     30  27  86 CALM      30.22R
MORA           CLEAR     32  25  74 CALM      30.22R
CAMBRIDGE      CLEAR     34  25  69 CALM      30.19R
RUSH CITY      CLEAR     31  25  77 CALM      30.21R
MOOSE LAKE     CLEAR     28  27  93 CALM      30.18S
HINCKLEY       FAIR      30  27  86 CALM      30.20R
CLOQUET        CLEAR     27  21  80 NW5       30.19R WCI  21
MCGREGOR       CLEAR     30  27  86 CALM      30.20R
$$
MNZ071>073-080-081-089-090-097-098-271000-
   Southwest Minnesota

CITY           SKY/WX    TMP DP  RH WIND       PRES   REMARKS
MONTEVIDEO     CLEAR     36  21  55 CALM      30.20S
GRANITE FALLS  CLEAR     34  19  56 CALM      30.21S
CANBY          CLEAR     34  28  77 W3        30.20S
MARSHALL       CLEAR     34  19  55 W6        30.18S WCI  29
REDWOOD FALLS  CLEAR     41  22  46 CALM      30.19R
OLIVIA         CLEAR     34  19  55 NE3       30.19S
PIPESTONE      CLEAR     39  21  48 E3        30.16S
WINDOM         FAIR      36  19  51 CALM      30.17S
WORTHINGTON    CLEAR     34  19  55 N7        30.17S WCI  28
JACKSON        CLEAR     36  23  60 NW5       30.17F
TRACY          CLEAR     40  21  47 CALM      30.19R
SLAYTON        CLEAR     33  21  62 CALM      30.18F
$$
MNZ065>067-074>077-082>085-091>093-271000-
   South Central Minnesota

CITY           SKY/WX    TMP DP  RH WIND       PRES   REMARKS
MANKATO        CLEAR     45  27  49 NE3       30.18R
NEW ULM        CLEAR     43  21  42 NE3       30.19R
ST JAMES       CLEAR     32  21  64 NW3       30.19R
FAIRMONT       FAIR      36  23  60 NW6       30.16S
GLENCOE        CLEAR     36  27  70 N5        30.19S
FARIBAULT      CLEAR     34  27  75 N3        30.18S
OWATONNA       CLEAR     32  23  69 CALM      30.17S
WASECA         CLEAR     39  27  60 N5        30.18S
ALBERT LEA     CLEAR     39  28  65 N5        30.15S
$$
MNZ078>079-086>088-094>096-271000-
   Southeast Minnesota

CITY           SKY/WX    TMP DP  RH WIND       PRES   REMARKS
ROCHESTER      CLEAR     37  27  67 N7        30.15S
RED WING       CLEAR     34  27  75 CALM      30.17R
STANTON        CLEAR     32  26  80 CALM      30.17R
DODGE CENTER   CLEAR     39  27  60 N6        30.16R
WINONA         CLEAR     37  32  81 NW5       30.16S
AUSTIN         CLEAR     37  28  70 N5        30.15R
PRESTON        CLEAR     38  26  61 NW3       30.15R
$$
ABBREVIATIONS USED IN REMARKS
   TC - TEMPERATURES IN CELSIUS
  WCI - WIND CHILL INDEX
   HX - HEAT INDEX
  VSB - VISIBILITY
$$



USA.gov is the U.S. government's official web portal to all federal, state and local government web resources and services.